Location: ?
(35.4214°N, 139.3011°E)
Time: 19:46:02
(UTC+00:00)

X-37B - Visible Passes

Search period start: 28 September 2020 00:00
Search period end: 08 October 2020 00:00
Orbit: 386 x 387 km, 45.0° (Epoch: 18 September)

Date Brightness Start Highest point End Pass type
(mag) Time Alt. Az. Time Alt. Az. Time Alt. Az.
29 Sep 3.1 09:38:16 10° SSE 09:38:26 11° SSE 09:38:26 11° SSE visible
30 Sep 2.7 10:14:25 10° SW 10:15:36 21° SW 10:15:36 21° SW visible
01 Oct 1.8 09:16:21 10° SSW 09:19:03 26° SE 09:20:18 20° ESE visible
01 Oct 4.2 10:52:35 10° W 10:52:36 10° W 10:52:36 10° W visible
02 Oct 0.6 09:53:47 10° WSW 09:56:57 70° NNW 09:57:08 68° N visible
03 Oct 0.8 08:55:18 10° SW 08:58:23 55° SE 09:01:31 10° ENE visible
03 Oct 3.4 10:32:29 10° WNW 10:33:49 18° WNW 10:33:49 18° WNW visible
04 Oct 1.8 09:33:28 10° W 09:36:27 38° NNW 09:38:05 21° NNE visible
05 Oct 3.0 10:12:31 10° WNW 10:14:32 18° NNW 10:14:32 18° NNW visible
06 Oct 2.5 09:13:22 10° WNW 09:16:03 24° NNW 09:18:37 11° NE visible
07 Oct 3.0 09:52:33 10° NW 09:54:33 15° N 09:54:56 15° N visible
